{"data":{"norad_id":61966,"epoch":"2026-09-21T08:27:03.770208Z","epoch_age_seconds":111962,"freshness":"FRESH","line1":"1 61966U 24210H   26264.35212697  .00010263  00000+0  38203-3 0  9992","line2":"2 61966  42.9980 140.1446 0002121 270.3745  89.6863 15.27574581105007","mean_motion":15.27574581,"eccentricity":0.0002121,"inclination_deg":42.998,"raan_deg":140.1446,"arg_perigee_deg":270.3745,"mean_anomaly_deg":89.6863,"bstar":0.00038203,"rev_number":10500,"period_min":94.267083120572,"perigee_km":481.61006151049,"apogee_km":484.5205835357,"semimajor_km":6861.2023225231,"source":"CELESTRAK","updated_at":"2026-09-22T09:00:49.459446Z"}}